Year,Month,Day,Hour,Minute,Value (Times are PST for temperature in C)
2007,08,11,00,00,10.80
2007,08,11,00,01,10.80
2007,08,11,00,02,10.80
2007,08,11,00,03,10.80
2007,08,11,00,04,10.90
2007,08,11,00,05,10.90
2007,08,11,00,06,10.90
2007,08,11,00,07,10.90
2007,08,11,00,08,10.90
2007,08,11,00,09,10.90
2007,08,11,00,10,10.90
2007,08,11,00,11,10.90
2007,08,11,00,12,10.90
2007,08,11,00,13,10.90
2007,08,11,00,14,10.90
2007,08,11,00,15,10.90
2007,08,11,00,16,10.90
2007,08,11,00,17,10.90
2007,08,11,00,18,10.80
2007,08,11,00,19,10.80
2007,08,11,00,20,10.80
2007,08,11,00,21,10.70
2007,08,11,00,22,10.70
2007,08,11,00,23,10.70
2007,08,11,00,24,10.70
2007,08,11,00,25,10.70
2007,08,11,00,26,10.60
2007,08,11,00,27,10.60
2007,08,11,00,28,10.60
2007,08,11,00,29,10.60
2007,08,11,00,30,10.60
2007,08,11,00,31,10.60
2007,08,11,00,32,10.60
2007,08,11,00,33,10.60
2007,08,11,00,34,10.60
2007,08,11,00,35,10.60
2007,08,11,00,36,10.60
2007,08,11,00,37,10.60
2007,08,11,00,38,10.60
2007,08,11,00,39,10.60
2007,08,11,00,40,10.60
2007,08,11,00,41,10.60
2007,08,11,00,42,10.60
2007,08,11,00,43,10.50
2007,08,11,00,44,10.40
2007,08,11,00,45,10.40
2007,08,11,00,46,10.40
2007,08,11,00,47,10.40
2007,08,11,00,48,10.40
2007,08,11,00,49,10.40
2007,08,11,00,50,10.40
2007,08,11,00,51,10.40
2007,08,11,00,52,10.40
2007,08,11,00,53,10.40
2007,08,11,00,54,10.40
2007,08,11,00,55,10.40
2007,08,11,00,56,10.40
2007,08,11,00,57,10.40
2007,08,11,00,58,10.40
2007,08,11,00,59,10.40
2007,08,11,01,00,10.40
2007,08,11,01,01,10.30
2007,08,11,01,02,10.30
2007,08,11,01,03,10.30
2007,08,11,01,04,10.30
2007,08,11,01,05,10.30
2007,08,11,01,06,10.20
2007,08,11,01,07,10.20
2007,08,11,01,08,10.20
2007,08,11,01,09,10.20
2007,08,11,01,10,10.10
2007,08,11,01,11,10.10
2007,08,11,01,12,10.10
2007,08,11,01,13,10.10
2007,08,11,01,14,10.10
2007,08,11,01,15,10.10
2007,08,11,01,16,10.10
2007,08,11,01,17,10.10
2007,08,11,01,18,10.10
2007,08,11,01,19,10.10
2007,08,11,01,20,10.10
2007,08,11,01,21,9.90
2007,08,11,01,22,9.90
2007,08,11,01,23,9.90
2007,08,11,01,24,9.90
2007,08,11,01,25,9.90
2007,08,11,01,26,9.90
2007,08,11,01,27,9.90
2007,08,11,01,28,9.90
2007,08,11,01,29,9.90
2007,08,11,01,30,9.90
2007,08,11,01,31,9.80
2007,08,11,01,32,9.80
2007,08,11,01,33,9.80
2007,08,11,01,34,9.80
2007,08,11,01,35,9.80
2007,08,11,01,36,9.80
2007,08,11,01,37,9.80
2007,08,11,01,38,9.80
2007,08,11,01,39,9.80
2007,08,11,01,40,9.80
2007,08,11,01,41,9.80
2007,08,11,01,42,9.80
2007,08,11,01,43,9.80
2007,08,11,01,44,9.90
2007,08,11,01,45,9.90
2007,08,11,01,46,9.90
2007,08,11,01,47,9.80
2007,08,11,01,48,9.80
2007,08,11,01,49,9.90
2007,08,11,01,50,9.90
2007,08,11,01,51,9.90
2007,08,11,01,52,9.90
2007,08,11,01,53,9.90
2007,08,11,01,54,9.80
2007,08,11,01,55,9.80
2007,08,11,01,56,9.80
2007,08,11,01,57,9.80
2007,08,11,01,58,9.80
2007,08,11,01,59,9.80
2007,08,11,02,00,9.80
2007,08,11,02,01,9.80
2007,08,11,02,02,9.80
2007,08,11,02,03,9.80
2007,08,11,02,04,9.80
2007,08,11,02,05,9.80
2007,08,11,02,06,9.80
2007,08,11,02,07,9.70
2007,08,11,02,08,9.70
2007,08,11,02,09,9.70
2007,08,11,02,10,9.70
2007,08,11,02,11,9.60
2007,08,11,02,12,9.60
2007,08,11,02,13,9.60
2007,08,11,02,14,9.50
2007,08,11,02,15,9.50
2007,08,11,02,16,9.50
2007,08,11,02,17,9.40
2007,08,11,02,18,9.40
2007,08,11,02,19,9.40
2007,08,11,02,20,9.40
2007,08,11,02,21,9.30
2007,08,11,02,22,9.30
2007,08,11,02,23,9.30
2007,08,11,02,24,9.30
2007,08,11,02,25,9.30
2007,08,11,02,26,9.30
2007,08,11,02,27,9.20
2007,08,11,02,28,9.20
2007,08,11,02,29,9.20
2007,08,11,02,30,9.20
2007,08,11,02,31,9.20
2007,08,11,02,32,9.20
2007,08,11,02,33,9.20
2007,08,11,02,34,9.20
2007,08,11,02,35,9.20
2007,08,11,02,36,9.10
2007,08,11,02,37,9.10
2007,08,11,02,38,9.10
2007,08,11,02,39,9.10
2007,08,11,02,40,9.10
2007,08,11,02,41,9.10
2007,08,11,02,42,9.10
2007,08,11,02,43,9.00
2007,08,11,02,44,9.00
2007,08,11,02,45,9.00
2007,08,11,02,46,9.00
2007,08,11,02,47,8.90
2007,08,11,02,48,8.90
2007,08,11,02,49,8.90
2007,08,11,02,50,8.80
2007,08,11,02,51,8.80
2007,08,11,02,52,8.80
2007,08,11,02,53,8.70
2007,08,11,02,54,8.70
2007,08,11,02,55,8.70
2007,08,11,02,56,8.70
2007,08,11,02,57,8.70
2007,08,11,02,58,8.70
2007,08,11,02,59,8.70
2007,08,11,03,00,8.60
2007,08,11,03,01,8.60
2007,08,11,03,02,8.60
2007,08,11,03,03,8.60
2007,08,11,03,04,8.60
2007,08,11,03,05,8.60
2007,08,11,03,06,8.60
2007,08,11,03,07,8.70
2007,08,11,03,08,8.70
2007,08,11,03,09,8.70
2007,08,11,03,10,8.70
2007,08,11,03,11,8.70
2007,08,11,03,12,8.70
2007,08,11,03,13,8.70
2007,08,11,03,14,8.70
2007,08,11,03,15,8.70
2007,08,11,03,16,8.70
2007,08,11,03,17,8.70
2007,08,11,03,18,8.70
2007,08,11,03,19,8.70
2007,08,11,03,20,8.70
2007,08,11,03,21,8.60
2007,08,11,03,22,8.60
2007,08,11,03,23,8.60
2007,08,11,03,24,8.60
2007,08,11,03,25,8.60
2007,08,11,03,26,8.50
2007,08,11,03,27,8.50
2007,08,11,03,28,8.50
2007,08,11,03,29,8.50
2007,08,11,03,30,8.40
2007,08,11,03,31,8.40
2007,08,11,03,32,8.40
2007,08,11,03,33,8.30
2007,08,11,03,34,8.30
2007,08,11,03,35,8.30
2007,08,11,03,36,8.30
2007,08,11,03,37,8.30
2007,08,11,03,38,8.30
2007,08,11,03,39,8.30
2007,08,11,03,40,8.30
2007,08,11,03,41,8.30
2007,08,11,03,42,8.30
2007,08,11,03,43,8.30
2007,08,11,03,44,8.30
2007,08,11,03,45,8.30
2007,08,11,03,46,8.30
2007,08,11,03,47,8.30
2007,08,11,03,48,8.30
2007,08,11,03,49,8.40
2007,08,11,03,50,8.40
2007,08,11,03,51,8.40
2007,08,11,03,52,8.40
2007,08,11,03,53,8.40
2007,08,11,03,54,8.40
2007,08,11,03,55,8.40
2007,08,11,03,56,8.50
2007,08,11,03,57,8.50
2007,08,11,03,58,8.50
2007,08,11,03,59,8.40
2007,08,11,04,00,8.40
2007,08,11,04,01,8.40
2007,08,11,04,02,8.40
2007,08,11,04,03,8.30
2007,08,11,04,04,8.30
2007,08,11,04,05,8.30
2007,08,11,04,06,8.30
2007,08,11,04,07,8.30
2007,08,11,04,08,8.30
2007,08,11,04,09,8.30
2007,08,11,04,10,8.30
2007,08,11,04,11,8.30
2007,08,11,04,12,8.30
2007,08,11,04,13,8.20
2007,08,11,04,14,8.30
2007,08,11,04,15,8.30
2007,08,11,04,16,8.30
2007,08,11,04,17,8.30
2007,08,11,04,18,8.30
2007,08,11,04,19,8.30
2007,08,11,04,20,8.20
2007,08,11,04,21,8.20
2007,08,11,04,22,8.20
2007,08,11,04,23,8.30
2007,08,11,04,24,8.30
2007,08,11,04,25,8.30
2007,08,11,04,26,8.40
2007,08,11,04,27,8.40
2007,08,11,04,28,8.40
2007,08,11,04,29,8.40
2007,08,11,04,30,8.40
2007,08,11,04,31,8.40
2007,08,11,04,32,8.40
2007,08,11,04,33,8.40
2007,08,11,04,34,8.40
2007,08,11,04,35,8.40
2007,08,11,04,36,8.40
2007,08,11,04,37,8.40
2007,08,11,04,38,8.40
2007,08,11,04,39,8.40
2007,08,11,04,40,8.30
2007,08,11,04,41,8.30
2007,08,11,04,42,8.30
2007,08,11,04,43,8.30
2007,08,11,04,44,8.30
2007,08,11,04,45,8.30
2007,08,11,04,46,8.30
2007,08,11,04,47,8.30
2007,08,11,04,48,8.20
2007,08,11,04,49,8.20
2007,08,11,04,50,8.20
2007,08,11,04,51,8.10
2007,08,11,04,52,8.00
2007,08,11,04,53,8.00
2007,08,11,04,54,8.00
2007,08,11,04,55,7.90
2007,08,11,04,56,7.80
2007,08,11,04,57,7.80
2007,08,11,04,58,7.80
2007,08,11,04,59,7.80
2007,08,11,05,00,7.80
2007,08,11,05,01,7.80
2007,08,11,05,02,7.70
2007,08,11,05,03,7.70
2007,08,11,05,04,7.70
2007,08,11,05,05,7.70
2007,08,11,05,06,7.70
2007,08,11,05,07,7.70
2007,08,11,05,08,7.70
2007,08,11,05,09,7.70
2007,08,11,05,10,7.80
2007,08,11,05,11,7.80
2007,08,11,05,12,7.80
2007,08,11,05,13,7.80
2007,08,11,05,14,7.80
2007,08,11,05,15,7.80
2007,08,11,05,16,7.80
2007,08,11,05,17,7.80
2007,08,11,05,18,7.80
2007,08,11,05,19,7.80
2007,08,11,05,20,7.80
2007,08,11,05,21,7.80
2007,08,11,05,22,7.80
2007,08,11,05,23,7.80
2007,08,11,05,24,7.80
2007,08,11,05,25,7.80
2007,08,11,05,26,7.80
2007,08,11,05,27,7.80
2007,08,11,05,28,7.80
2007,08,11,05,29,7.80
2007,08,11,05,30,7.80
2007,08,11,05,31,7.80
2007,08,11,05,32,7.80
2007,08,11,05,33,7.80
2007,08,11,05,34,7.80
2007,08,11,05,35,7.80
2007,08,11,05,36,7.80
2007,08,11,05,37,7.80
2007,08,11,05,38,7.80
2007,08,11,05,39,7.80
2007,08,11,05,40,7.80
2007,08,11,05,41,7.80
2007,08,11,05,42,7.70
2007,08,11,05,43,7.70
2007,08,11,05,44,7.70
2007,08,11,05,45,7.70
2007,08,11,05,46,7.70
2007,08,11,05,47,7.70
2007,08,11,05,48,7.70
2007,08,11,05,49,7.70
2007,08,11,05,50,7.70
2007,08,11,05,51,7.70
2007,08,11,05,52,7.70
2007,08,11,05,53,7.70
2007,08,11,05,54,7.80
2007,08,11,05,55,7.80
2007,08,11,05,56,7.80
2007,08,11,05,57,7.80
2007,08,11,05,58,7.80
2007,08,11,05,59,7.80
2007,08,11,06,00,7.80
2007,08,11,06,01,7.80
2007,08,11,06,02,7.80
2007,08,11,06,03,7.80
2007,08,11,06,04,7.80
2007,08,11,06,05,7.70
2007,08,11,06,06,7.70
2007,08,11,06,07,7.70
2007,08,11,06,08,7.70
2007,08,11,06,09,7.70
2007,08,11,06,10,7.70
2007,08,11,06,11,7.70
2007,08,11,06,12,7.70
2007,08,11,06,13,7.70
2007,08,11,06,14,7.70
2007,08,11,06,15,7.70
2007,08,11,06,16,7.70
2007,08,11,06,17,7.70
2007,08,11,06,18,7.70
2007,08,11,06,19,7.80
2007,08,11,06,20,7.80
2007,08,11,06,21,7.80
2007,08,11,06,22,7.80
2007,08,11,06,23,7.80
2007,08,11,06,24,7.90
2007,08,11,06,25,7.90
2007,08,11,06,26,7.90
2007,08,11,06,27,7.90
2007,08,11,06,28,7.80
2007,08,11,06,29,7.80
2007,08,11,06,30,7.80
2007,08,11,06,31,7.80
2007,08,11,06,32,7.80
2007,08,11,06,33,7.90
2007,08,11,06,34,7.90
2007,08,11,06,35,7.90
2007,08,11,06,36,8.00
2007,08,11,06,37,8.00
2007,08,11,06,38,8.00
2007,08,11,06,39,8.00
2007,08,11,06,40,8.00
2007,08,11,06,41,8.00
2007,08,11,06,42,8.00
2007,08,11,06,43,8.00
2007,08,11,06,44,8.00
2007,08,11,06,45,8.00
2007,08,11,06,46,8.00
2007,08,11,06,47,8.00
2007,08,11,06,48,7.90
2007,08,11,06,49,7.90
2007,08,11,06,50,7.90
2007,08,11,06,51,7.90
2007,08,11,06,52,7.90
2007,08,11,06,53,7.90
2007,08,11,06,54,8.00
2007,08,11,06,55,8.00
2007,08,11,06,56,8.00
2007,08,11,06,57,8.10
2007,08,11,06,58,8.20
2007,08,11,06,59,8.20
2007,08,11,07,00,8.20
2007,08,11,07,01,8.20
2007,08,11,07,02,8.20
2007,08,11,07,03,8.30
2007,08,11,07,04,8.30
2007,08,11,07,05,8.30
2007,08,11,07,06,8.40
2007,08,11,07,07,8.40
2007,08,11,07,08,8.40
2007,08,11,07,09,8.50
2007,08,11,07,10,8.60
2007,08,11,07,11,8.60
2007,08,11,07,12,8.70
2007,08,11,07,13,8.70
2007,08,11,07,14,8.70
2007,08,11,07,15,8.70
2007,08,11,07,16,8.70
2007,08,11,07,17,8.70
2007,08,11,07,18,8.70
2007,08,11,07,19,8.80
2007,08,11,07,20,8.80
2007,08,11,07,21,8.80
2007,08,11,07,22,8.90
2007,08,11,07,23,8.90
2007,08,11,07,24,9.00
2007,08,11,07,25,9.00
2007,08,11,07,26,9.10
2007,08,11,07,27,9.10
2007,08,11,07,28,9.20
2007,08,11,07,29,9.20
2007,08,11,07,30,9.20
2007,08,11,07,31,9.30
2007,08,11,07,32,9.30
2007,08,11,07,33,9.30
2007,08,11,07,34,9.30
2007,08,11,07,35,9.30
2007,08,11,07,36,9.30
2007,08,11,07,37,9.30
2007,08,11,07,38,9.30
2007,08,11,07,39,9.30
2007,08,11,07,40,9.40
2007,08,11,07,41,9.40
2007,08,11,07,42,9.50
2007,08,11,07,43,9.50
2007,08,11,07,44,9.60
2007,08,11,07,45,9.60
2007,08,11,07,46,9.70
2007,08,11,07,47,9.70
2007,08,11,07,48,9.70
2007,08,11,07,49,9.80
2007,08,11,07,50,9.80
2007,08,11,07,51,9.90
2007,08,11,07,52,10.00
2007,08,11,07,53,10.10
2007,08,11,07,54,10.10
2007,08,11,07,55,10.20
2007,08,11,07,56,10.30
2007,08,11,07,57,10.40
2007,08,11,07,58,10.50
2007,08,11,07,59,10.60
2007,08,11,08,00,10.60
2007,08,11,08,01,10.60
2007,08,11,08,02,10.70
2007,08,11,08,03,10.70
2007,08,11,08,04,10.80
2007,08,11,08,05,10.90
2007,08,11,08,06,10.90
2007,08,11,08,07,10.90
2007,08,11,08,08,11.10
2007,08,11,08,09,11.10
2007,08,11,08,10,11.20
2007,08,11,08,11,11.30
2007,08,11,08,12,11.40
2007,08,11,08,13,11.50
2007,08,11,08,14,11.60
2007,08,11,08,15,11.60
2007,08,11,08,16,11.70
2007,08,11,08,17,11.70
2007,08,11,08,18,11.70
2007,08,11,08,19,11.80
2007,08,11,08,20,11.80
2007,08,11,08,21,11.80
2007,08,11,08,22,11.80
2007,08,11,08,23,11.80
2007,08,11,08,24,11.80
2007,08,11,08,25,11.80
2007,08,11,08,26,11.80
2007,08,11,08,27,11.80
2007,08,11,08,28,11.90
2007,08,11,08,29,12.00
2007,08,11,08,30,12.00
2007,08,11,08,31,12.10
2007,08,11,08,32,12.20
2007,08,11,08,33,12.30
2007,08,11,08,34,12.30
2007,08,11,08,35,12.30
2007,08,11,08,36,12.30
2007,08,11,08,37,12.30
2007,08,11,08,38,12.30
2007,08,11,08,39,12.30
2007,08,11,08,40,12.30
2007,08,11,08,41,12.30
2007,08,11,08,42,12.30
2007,08,11,08,43,12.30
2007,08,11,08,44,12.30
2007,08,11,08,45,12.30
2007,08,11,08,46,12.30
2007,08,11,08,47,12.20
2007,08,11,08,48,12.10
2007,08,11,08,49,12.10
2007,08,11,08,50,12.10
2007,08,11,08,51,12.10
2007,08,11,08,52,12.10
2007,08,11,08,53,12.20
2007,08,11,08,54,12.20
2007,08,11,08,55,12.20
2007,08,11,08,56,12.20
2007,08,11,08,57,12.10
2007,08,11,08,58,12.00
2007,08,11,08,59,12.00
2007,08,11,09,00,12.00
2007,08,11,09,01,12.00
2007,08,11,09,02,11.90
2007,08,11,09,03,11.80
2007,08,11,09,04,11.80
2007,08,11,09,05,11.80
2007,08,11,09,06,11.80
2007,08,11,09,07,11.80
2007,08,11,09,08,11.90
2007,08,11,09,09,11.90
2007,08,11,09,10,11.90
2007,08,11,09,11,11.90
2007,08,11,09,12,12.00
2007,08,11,09,13,12.00
2007,08,11,09,14,12.00
2007,08,11,09,15,12.10
2007,08,11,09,16,12.10
2007,08,11,09,17,12.20
2007,08,11,09,18,12.20
2007,08,11,09,19,12.30
2007,08,11,09,20,12.30
2007,08,11,09,21,12.30
2007,08,11,09,22,12.40
2007,08,11,09,23,12.50
2007,08,11,09,24,12.50
2007,08,11,09,25,12.60
2007,08,11,09,26,12.70
2007,08,11,09,27,12.80
2007,08,11,09,28,12.90
2007,08,11,09,29,13.00
2007,08,11,09,30,13.10
2007,08,11,09,31,13.20
2007,08,11,09,32,13.30
2007,08,11,09,33,13.40
2007,08,11,09,34,13.60
2007,08,11,09,35,13.60
2007,08,11,09,36,13.70
2007,08,11,09,37,13.80
2007,08,11,09,38,13.80
2007,08,11,09,39,13.90
2007,08,11,09,40,13.80
2007,08,11,09,41,13.90
2007,08,11,09,42,14.00
2007,08,11,09,43,13.90
2007,08,11,09,44,13.80
2007,08,11,09,45,13.70
2007,08,11,09,46,13.70
2007,08,11,09,47,13.60
2007,08,11,09,48,13.50
2007,08,11,09,49,13.40
2007,08,11,09,50,13.30
2007,08,11,09,51,13.30
2007,08,11,09,52,13.30
2007,08,11,09,53,13.30
2007,08,11,09,54,13.20
2007,08,11,09,55,13.20
2007,08,11,09,56,13.10
2007,08,11,09,57,13.10
2007,08,11,09,58,12.90
2007,08,11,09,59,12.80
2007,08,11,10,00,12.80
2007,08,11,10,01,12.90
2007,08,11,10,02,13.00
2007,08,11,10,03,13.20
2007,08,11,10,04,13.30
2007,08,11,10,05,13.40
2007,08,11,10,06,13.60
2007,08,11,10,07,13.60
2007,08,11,10,08,13.60
2007,08,11,10,09,13.50
2007,08,11,10,10,13.40
2007,08,11,10,11,13.30
2007,08,11,10,12,13.30
2007,08,11,10,13,13.20
2007,08,11,10,14,13.10
2007,08,11,10,15,13.00
2007,08,11,10,16,12.90
2007,08,11,10,17,12.90
2007,08,11,10,18,12.90
2007,08,11,10,19,12.90
2007,08,11,10,20,12.90
2007,08,11,10,21,12.90
2007,08,11,10,22,12.90
2007,08,11,10,23,12.90
2007,08,11,10,24,13.00
2007,08,11,10,25,13.00
2007,08,11,10,26,12.90
2007,08,11,10,27,12.90
2007,08,11,10,28,13.00
2007,08,11,10,29,13.10
2007,08,11,10,30,13.20
2007,08,11,10,31,13.30
2007,08,11,10,32,13.50
2007,08,11,10,33,13.50
2007,08,11,10,34,13.50
2007,08,11,10,35,13.60
2007,08,11,10,36,13.60
2007,08,11,10,37,13.50
2007,08,11,10,38,13.50
2007,08,11,10,39,13.50
2007,08,11,10,40,13.50
2007,08,11,10,41,13.40
2007,08,11,10,42,13.30
2007,08,11,10,43,13.30
2007,08,11,10,44,13.20
2007,08,11,10,45,13.20
2007,08,11,10,46,13.20
2007,08,11,10,47,13.10
2007,08,11,10,48,13.10
2007,08,11,10,49,13.10
2007,08,11,10,50,13.10
2007,08,11,10,51,13.20
2007,08,11,10,52,13.30
2007,08,11,10,53,13.30
2007,08,11,10,54,13.30
2007,08,11,10,55,13.20
2007,08,11,10,56,13.20
2007,08,11,10,57,13.20
2007,08,11,10,58,13.20
2007,08,11,10,59,13.10
2007,08,11,11,00,13.10
2007,08,11,11,01,13.00
2007,08,11,11,02,13.00
2007,08,11,11,03,13.00
2007,08,11,11,04,13.10
2007,08,11,11,05,13.20
2007,08,11,11,06,13.30
2007,08,11,11,07,13.30
2007,08,11,11,08,13.20
2007,08,11,11,09,13.20
2007,08,11,11,10,13.10
2007,08,11,11,11,12.90
2007,08,11,11,12,12.90
2007,08,11,11,13,12.90
2007,08,11,11,14,12.90
2007,08,11,11,15,12.80
2007,08,11,11,16,12.80
2007,08,11,11,17,12.90
2007,08,11,11,18,12.90
2007,08,11,11,19,13.00
2007,08,11,11,20,13.10
2007,08,11,11,21,13.30
2007,08,11,11,22,13.40
2007,08,11,11,23,13.50
2007,08,11,11,24,13.60
2007,08,11,11,25,13.60
2007,08,11,11,26,13.70
2007,08,11,11,27,13.80
2007,08,11,11,28,13.90
2007,08,11,11,29,14.00
2007,08,11,11,30,14.20
2007,08,11,11,31,14.30
2007,08,11,11,32,14.40
2007,08,11,11,33,14.40
2007,08,11,11,34,14.40
2007,08,11,11,35,14.30
2007,08,11,11,36,14.20
2007,08,11,11,37,14.20
2007,08,11,11,38,14.20
2007,08,11,11,39,14.30
2007,08,11,11,40,14.20
2007,08,11,11,41,14.10
2007,08,11,11,42,14.20
2007,08,11,11,43,14.20
2007,08,11,11,44,14.20
2007,08,11,11,45,14.30
2007,08,11,11,46,14.40
2007,08,11,11,47,14.40
2007,08,11,11,48,14.40
2007,08,11,11,49,14.40
2007,08,11,11,50,14.40
2007,08,11,11,51,14.40
2007,08,11,11,52,14.40
2007,08,11,11,53,14.40
2007,08,11,11,54,14.50
2007,08,11,11,55,14.50
2007,08,11,11,56,14.60
2007,08,11,11,57,14.70
2007,08,11,11,58,14.70
2007,08,11,11,59,14.70
2007,08,11,12,00,14.70
2007,08,11,12,01,14.60
2007,08,11,12,02,14.50
2007,08,11,12,03,14.40
2007,08,11,12,04,14.40
2007,08,11,12,05,14.50
2007,08,11,12,06,14.50
2007,08,11,12,07,14.50
2007,08,11,12,08,14.50
2007,08,11,12,09,14.50
2007,08,11,12,10,14.60
2007,08,11,12,11,14.60
2007,08,11,12,12,14.80
2007,08,11,12,13,14.80
2007,08,11,12,14,14.80
2007,08,11,12,15,14.70
2007,08,11,12,16,14.50
2007,08,11,12,17,14.40
2007,08,11,12,18,14.30
2007,08,11,12,19,14.20
2007,08,11,12,20,14.10
2007,08,11,12,21,13.90
2007,08,11,12,22,13.80
2007,08,11,12,23,13.70
2007,08,11,12,24,13.70
2007,08,11,12,25,13.60
2007,08,11,12,26,13.60
2007,08,11,12,27,13.50
2007,08,11,12,28,13.50
2007,08,11,12,29,13.50
2007,08,11,12,30,13.50
2007,08,11,12,31,13.50
2007,08,11,12,32,13.60
2007,08,11,12,33,13.70
2007,08,11,12,34,13.70
2007,08,11,12,35,13.70
2007,08,11,12,36,13.70
2007,08,11,12,37,13.60
2007,08,11,12,38,13.60
2007,08,11,12,39,13.70
2007,08,11,12,40,13.70
2007,08,11,12,41,13.80
2007,08,11,12,42,13.90
2007,08,11,12,43,13.90
2007,08,11,12,44,14.00
2007,08,11,12,45,14.10
2007,08,11,12,46,14.10
2007,08,11,12,47,14.20
2007,08,11,12,48,14.10
2007,08,11,12,49,14.00
2007,08,11,12,50,14.00
2007,08,11,12,51,14.00
2007,08,11,12,52,14.10
2007,08,11,12,53,14.20
2007,08,11,12,54,14.20
2007,08,11,12,55,14.20
2007,08,11,12,56,14.30
2007,08,11,12,57,14.40
2007,08,11,12,58,14.50
2007,08,11,12,59,14.60
2007,08,11,13,00,14.80
2007,08,11,13,01,14.90
2007,08,11,13,02,15.00
2007,08,11,13,03,15.10
2007,08,11,13,04,15.20
2007,08,11,13,05,15.30
2007,08,11,13,06,15.50
2007,08,11,13,07,15.60
2007,08,11,13,08,15.80
2007,08,11,13,09,15.90
2007,08,11,13,10,16.00
2007,08,11,13,11,16.10
2007,08,11,13,12,16.20
2007,08,11,13,13,16.40
2007,08,11,13,14,16.50
2007,08,11,13,15,16.70
2007,08,11,13,16,16.80
2007,08,11,13,17,17.00
2007,08,11,13,18,17.10
2007,08,11,13,19,17.40
2007,08,11,13,20,17.60
2007,08,11,13,21,17.80
2007,08,11,13,22,17.80
2007,08,11,13,23,18.00
2007,08,11,13,24,18.10
2007,08,11,13,25,18.20
2007,08,11,13,26,18.30
2007,08,11,13,27,18.40
2007,08,11,13,28,18.50
2007,08,11,13,29,18.60
2007,08,11,13,30,18.60
2007,08,11,13,31,18.70
2007,08,11,13,32,18.70
2007,08,11,13,33,18.80
2007,08,11,13,34,18.80
2007,08,11,13,35,18.80
2007,08,11,13,36,18.80
2007,08,11,13,37,18.80
2007,08,11,13,38,18.90
2007,08,11,13,39,18.90
2007,08,11,13,40,18.90
2007,08,11,13,41,19.00
2007,08,11,13,42,19.10
2007,08,11,13,43,19.20
2007,08,11,13,44,19.30
2007,08,11,13,45,19.40
2007,08,11,13,46,19.40
2007,08,11,13,47,19.40
2007,08,11,13,48,19.40
2007,08,11,13,49,19.30
2007,08,11,13,50,19.30
2007,08,11,13,51,19.40
2007,08,11,13,52,19.40
2007,08,11,13,53,19.50
2007,08,11,13,54,19.60
2007,08,11,13,55,19.60
2007,08,11,13,56,19.70
2007,08,11,13,57,19.80
2007,08,11,13,58,19.90
2007,08,11,13,59,19.90
2007,08,11,14,00,19.90
2007,08,11,14,01,19.90
2007,08,11,14,02,19.80
2007,08,11,14,03,19.80
2007,08,11,14,04,19.70
2007,08,11,14,05,19.60
2007,08,11,14,06,19.60
2007,08,11,14,07,19.60
2007,08,11,14,08,19.70
2007,08,11,14,09,19.80
2007,08,11,14,10,19.80
2007,08,11,14,11,19.90
2007,08,11,14,12,19.90
2007,08,11,14,13,19.90
2007,08,11,14,14,19.90
2007,08,11,14,15,19.90
2007,08,11,14,16,19.90
2007,08,11,14,17,19.90
2007,08,11,14,18,19.90
2007,08,11,14,19,19.80
2007,08,11,14,20,19.70
2007,08,11,14,21,19.50
2007,08,11,14,22,19.40
2007,08,11,14,23,19.30
2007,08,11,14,24,19.30
2007,08,11,14,25,19.30
2007,08,11,14,26,19.30
2007,08,11,14,27,19.10
2007,08,11,14,28,19.00
2007,08,11,14,29,18.80
2007,08,11,14,30,18.70
2007,08,11,14,31,18.70
2007,08,11,14,32,18.70
2007,08,11,14,33,18.70
2007,08,11,14,34,18.60
2007,08,11,14,35,18.50
2007,08,11,14,36,18.40
2007,08,11,14,37,18.30
2007,08,11,14,38,18.30
2007,08,11,14,39,18.30
2007,08,11,14,40,18.30
2007,08,11,14,41,18.20
2007,08,11,14,42,18.20
2007,08,11,14,43,18.30
2007,08,11,14,44,18.30
2007,08,11,14,45,18.20
2007,08,11,14,46,18.20
2007,08,11,14,47,18.20
2007,08,11,14,48,18.20
2007,08,11,14,49,18.20
2007,08,11,14,50,18.20
2007,08,11,14,51,18.20
2007,08,11,14,52,18.30
2007,08,11,14,53,18.30
2007,08,11,14,54,18.40
2007,08,11,14,55,18.40
2007,08,11,14,56,18.40
2007,08,11,14,57,18.40
2007,08,11,14,58,18.40
2007,08,11,14,59,18.40
2007,08,11,15,00,18.40
2007,08,11,15,01,18.40
2007,08,11,15,02,18.40
2007,08,11,15,03,18.40
2007,08,11,15,04,18.40
2007,08,11,15,05,18.40
2007,08,11,15,06,18.30
2007,08,11,15,07,18.30
2007,08,11,15,08,18.40
2007,08,11,15,09,18.40
2007,08,11,15,10,18.40
2007,08,11,15,11,18.40
2007,08,11,15,12,18.30
2007,08,11,15,13,18.30
2007,08,11,15,14,18.20
2007,08,11,15,15,18.20
2007,08,11,15,16,18.20
2007,08,11,15,17,18.10
2007,08,11,15,18,18.00
2007,08,11,15,19,17.90
2007,08,11,15,20,17.90
2007,08,11,15,21,17.90
2007,08,11,15,22,17.90
2007,08,11,15,23,17.90
2007,08,11,15,24,17.90
2007,08,11,15,25,17.90
2007,08,11,15,26,17.90
2007,08,11,15,27,17.90
2007,08,11,15,28,17.90
2007,08,11,15,29,17.90
2007,08,11,15,30,17.90
2007,08,11,15,31,17.90
2007,08,11,15,32,17.90
2007,08,11,15,33,17.90
2007,08,11,15,34,17.90
2007,08,11,15,35,17.90
2007,08,11,15,36,17.80
2007,08,11,15,37,17.70
2007,08,11,15,38,17.60
2007,08,11,15,39,17.50
2007,08,11,15,40,17.40
2007,08,11,15,41,17.30
2007,08,11,15,42,17.30
2007,08,11,15,43,17.20
2007,08,11,15,44,17.20
2007,08,11,15,45,17.20
2007,08,11,15,46,17.20
2007,08,11,15,47,17.20
2007,08,11,15,48,17.20
2007,08,11,15,49,17.20
2007,08,11,15,50,17.20
2007,08,11,15,51,17.30
2007,08,11,15,52,17.30
2007,08,11,15,53,17.30
2007,08,11,15,54,17.30
2007,08,11,15,55,17.30
2007,08,11,15,56,17.20
2007,08,11,15,57,17.30
2007,08,11,15,58,17.30
2007,08,11,15,59,17.30
2007,08,11,16,00,17.30
2007,08,11,16,01,17.30
2007,08,11,16,02,17.30
2007,08,11,16,03,17.30
2007,08,11,16,04,17.30
2007,08,11,16,05,17.30
2007,08,11,16,06,17.30
2007,08,11,16,07,17.30
2007,08,11,16,08,17.40
2007,08,11,16,09,17.40
2007,08,11,16,10,17.40
2007,08,11,16,11,17.40
2007,08,11,16,12,17.40
2007,08,11,16,13,17.40
2007,08,11,16,14,17.40
2007,08,11,16,15,17.40
2007,08,11,16,16,17.40
2007,08,11,16,17,17.30
2007,08,11,16,18,17.30
2007,08,11,16,19,17.30
2007,08,11,16,20,17.30
2007,08,11,16,21,17.30
2007,08,11,16,22,17.30
2007,08,11,16,23,17.30
2007,08,11,16,24,17.30
2007,08,11,16,25,17.30
2007,08,11,16,26,17.30
2007,08,11,16,27,17.20
2007,08,11,16,28,17.20
2007,08,11,16,29,17.10
2007,08,11,16,30,17.00
2007,08,11,16,31,16.90
2007,08,11,16,32,16.90
2007,08,11,16,33,16.90
2007,08,11,16,34,16.80
2007,08,11,16,35,16.80
2007,08,11,16,36,16.80
2007,08,11,16,37,16.70
2007,08,11,16,38,16.70
2007,08,11,16,39,16.70
2007,08,11,16,40,16.70
2007,08,11,16,41,16.60
2007,08,11,16,42,16.50
2007,08,11,16,43,16.40
2007,08,11,16,44,16.40
2007,08,11,16,45,16.40
2007,08,11,16,46,16.40
2007,08,11,16,47,16.30
2007,08,11,16,48,16.30
2007,08,11,16,49,16.30
2007,08,11,16,50,16.30
2007,08,11,16,51,16.30
2007,08,11,16,52,16.30
2007,08,11,16,53,16.30
2007,08,11,16,54,16.30
2007,08,11,16,55,16.30
2007,08,11,16,56,16.30
2007,08,11,16,57,16.30
2007,08,11,16,58,16.20
2007,08,11,16,59,16.20
2007,08,11,17,00,16.20
2007,08,11,17,01,16.20
2007,08,11,17,02,16.20
2007,08,11,17,03,16.20
2007,08,11,17,04,16.10
2007,08,11,17,05,16.10
2007,08,11,17,06,16.10
2007,08,11,17,07,16.10
2007,08,11,17,08,16.10
2007,08,11,17,09,16.10
2007,08,11,17,10,16.10
2007,08,11,17,11,16.10
2007,08,11,17,12,16.10
2007,08,11,17,13,16.10
2007,08,11,17,14,16.10
2007,08,11,17,15,16.10
2007,08,11,17,16,16.10
2007,08,11,17,17,16.10
2007,08,11,17,18,16.10
2007,08,11,17,19,16.10
2007,08,11,17,20,16.10
2007,08,11,17,21,16.10
2007,08,11,17,22,16.10
2007,08,11,17,23,16.10
2007,08,11,17,24,16.10
2007,08,11,17,25,16.10
2007,08,11,17,26,16.00
2007,08,11,17,27,15.90
2007,08,11,17,28,15.90
2007,08,11,17,29,15.80
2007,08,11,17,30,15.80
2007,08,11,17,31,15.80
2007,08,11,17,32,15.80
2007,08,11,17,33,15.80
2007,08,11,17,34,15.80
2007,08,11,17,35,15.80
2007,08,11,17,36,15.80